When you browse on this site, cookies collect data to enhance your experience and personalize the content and advertising you see.
Visit our Privacy Policy to learn more. By continuing to use the site, you agree to this use of cookies and data.

Previsão horária em Abadzekhskaya

Hoje, 26 Setembro, Sábado

Tempo Temperatura Precipitação Vento Pressão Humidade
00:00 +18°C° 0 mm 2 m/s 708 mmHg 58%
01:00 +17°C° 0 mm 2 m/s 708 mmHg 58%
02:00 +17°C° 0 mm 2 m/s 708 mmHg 57%
03:00 +18°C° 0 mm 1 m/s 708 mmHg 56%
04:00 +18°C° 0 mm 1 m/s 708 mmHg 56%
05:00 +18°C° 0 mm 1 m/s 708 mmHg 56%
06:00 +18°C° 0 mm 1 m/s 708 mmHg 55%
07:00 +20°C° 0 mm 1 m/s 708 mmHg 51%
08:00 +22°C° 0 mm 1 m/s 709 mmHg 46%
09:00 +23°C° 0 mm 0 m/s 709 mmHg 42%
10:00 +26°C° 0 mm 1 m/s 709 mmHg 38%
11:00 +27°C° 0 mm 1 m/s 710 mmHg 35%
12:00 +29°C° 0 mm 2 m/s 710 mmHg 31%
13:00 +29°C° 0 mm 2 m/s 710 mmHg 32%
14:00 +29°C° 0 mm 2 m/s 710 mmHg 33%
15:00 +29°C° 0 mm 2 m/s 710 mmHg 34%
16:00 +27°C° 0 mm 2 m/s 710 mmHg 39%
17:00 +25°C° 0 mm 2 m/s 709 mmHg 44%
18:00 +23°C° 0 mm 1 m/s 709 mmHg 50%
19:00 +22°C° 0 mm 1 m/s 709 mmHg 53%
20:00 +20°C° 0 mm 2 m/s 709 mmHg 55%
21:00 +19°C° 0 mm 2 m/s 709 mmHg 58%
22:00 +18°C° 0 mm 2 m/s 709 mmHg 59%
23:00 +18°C° 0 mm 2 m/s 709 mmHg 61%

Amanhã, 27 Setembro, Domingo

Tempo Temperatura Precipitação Vento Pressão Humidade
00:00 +17°C° 0 mm 2 m/s 709 mmHg 62%
01:00 +18°C° 0 mm 1 m/s 709 mmHg 62%
02:00 +18°C° 0 mm 1 m/s 710 mmHg 63%
03:00 +18°C° 0 mm 1 m/s 710 mmHg 63%
04:00 +18°C° 0 mm 1 m/s 710 mmHg 63%
05:00 +18°C° 0 mm 1 m/s 710 mmHg 63%
06:00 +18°C° 0 mm 1 m/s 710 mmHg 62%
07:00 +20°C° 0 mm 1 m/s 711 mmHg 56%
08:00 +23°C° 0 mm 1 m/s 711 mmHg 49%
09:00 +24°C° 0 mm 0 m/s 712 mmHg 42%
10:00 +28°C° 0 mm 1 m/s 712 mmHg 38%
11:00 +29°C° 0 mm 1 m/s 712 mmHg 34%
12:00 +31°C° 0 mm 1 m/s 713 mmHg 30%
13:00 +31°C° 0 mm 1 m/s 713 mmHg 30%
14:00 +31°C° 0 mm 1 m/s 713 mmHg 30%
15:00 +31°C° 0 mm 1 m/s 713 mmHg 29%
16:00 +29°C° 0 mm 1 m/s 713 mmHg 36%
17:00 +27°C° 0 mm 2 m/s 713 mmHg 42%
18:00 +24°C° 0 mm 2 m/s 713 mmHg 48%
19:00 +23°C° 0 mm 2 m/s 713 mmHg 52%
20:00 +21°C° 0 mm 2 m/s 713 mmHg 55%
21:00 +20°C° 0 mm 2 m/s 713 mmHg 58%
22:00 +20°C° 0 mm 2 m/s 713 mmHg 59%
23:00 +20°C° 0 mm 2 m/s 714 mmHg 59%

Depois de amanhã, 28 Setembro, Segunda-feira

Tempo Temperatura Precipitação Vento Pressão Humidade
00:00 +19°C° 0 mm 2 m/s 714 mmHg 60%
01:00 +20°C° 0 mm 1 m/s 714 mmHg 60%
02:00 +20°C° 0 mm 1 m/s 714 mmHg 60%
03:00 +20°C° 0 mm 1 m/s 714 mmHg 60%
04:00 +20°C° 0 mm 1 m/s 714 mmHg 59%
05:00 +20°C° 0 mm 1 m/s 714 mmHg 59%
06:00 +20°C° 0 mm 1 m/s 715 mmHg 59%
07:00 +21°C° 0 mm 1 m/s 715 mmHg 55%
08:00 +21°C° 0 mm 0 m/s 715 mmHg 51%
09:00 +23°C° 0 mm 0 m/s 716 mmHg 47%
10:00 +27°C° 0 mm 1 m/s 716 mmHg 44%
11:00 +28°C° 0 mm 1 m/s 716 mmHg 40%
12:00 +29°C° 0 mm 2 m/s 716 mmHg 37%
13:00 +30°C° 0 mm 2 m/s 716 mmHg 36%
14:00 +30°C° 0 mm 2 m/s 716 mmHg 36%
15:00 +30°C° 0 mm 2 m/s 716 mmHg 35%
16:00 +28°C° 0 mm 2 m/s 715 mmHg 41%
17:00 +26°C° 0 mm 2 m/s 715 mmHg 46%
18:00 +24°C° 0 mm 2 m/s 715 mmHg 52%
19:00 +23°C° 0 mm 2 m/s 715 mmHg 55%
20:00 +21°C° 0 mm 2 m/s 715 mmHg 58%
21:00 +20°C° 0 mm 2 m/s 714 mmHg 60%
22:00 +20°C° 0 mm 2 m/s 714 mmHg 61%
23:00 +19°C° 0 mm 2 m/s 714 mmHg 61%

29 Setembro, Terça-feira

Tempo Temperatura Precipitação Vento Pressão Humidade
00:00 +19°C° 0 mm 2 m/s 714 mmHg 62%
01:00 +20°C° 0 mm 1 m/s 714 mmHg 62%
02:00 +20°C° 0 mm 1 m/s 714 mmHg 63%
03:00 +19°C° 0 mm 1 m/s 714 mmHg 63%
04:00 +19°C° 0 mm 1 m/s 714 mmHg 63%
05:00 +19°C° 0 mm 1 m/s 714 mmHg 64%
06:00 +19°C° 0 mm 1 m/s 714 mmHg 64%
07:00 +21°C° 0 mm 1 m/s 714 mmHg 58%
08:00 +23°C° 0 mm 1 m/s 714 mmHg 52%
09:00 +24°C° 0 mm 0 m/s 714 mmHg 46%
10:00 +27°C° 0 mm 1 m/s 714 mmHg 42%
11:00 +29°C° 0 mm 1 m/s 714 mmHg 38%
12:00 +30°C° 0 mm 1 m/s 714 mmHg 33%
13:00 +30°C° 0 mm 2 m/s 714 mmHg 33%
14:00 +31°C° 0 mm 2 m/s 713 mmHg 32%
15:00 +31°C° 0 mm 2 m/s 713 mmHg 31%
16:00 +28°C° 0 mm 2 m/s 712 mmHg 37%
17:00 +26°C° 0 mm 2 m/s 711 mmHg 43%
18:00 +24°C° 0 mm 2 m/s 710 mmHg 49%
19:00 +23°C° 0 mm 2 m/s 710 mmHg 52%
20:00 +21°C° 0 mm 2 m/s 710 mmHg 55%
21:00 +20°C° 0 mm 2 m/s 710 mmHg 57%
22:00 +19°C° 0 mm 2 m/s 710 mmHg 60%
23:00 +19°C° 0 mm 2 m/s 710 mmHg 62%

30 Setembro, Quarta-feira

Tempo Temperatura Precipitação Vento Pressão Humidade
00:00 +19°C° 0 mm 1 m/s 709 mmHg 65%
01:00 +19°C° 0 mm 1 m/s 709 mmHg 67%
02:00 +18°C° 0 mm 1 m/s 709 mmHg 69%
03:00 +18°C° 0 mm 1 m/s 709 mmHg 72%
04:00 +18°C° 0 mm 1 m/s 709 mmHg 71%
05:00 +18°C° 0 mm 1 m/s 709 mmHg 71%
06:00 +18°C° 0 mm 1 m/s 709 mmHg 71%
07:00 +19°C° 0.2 mm 1 m/s 709 mmHg 69%
08:00 +20°C° 0.2 mm 1 m/s 709 mmHg 68%
09:00 +21°C° 0.2 mm 1 m/s 710 mmHg 66%
10:00 +22°C° 0.1 mm 1 m/s 710 mmHg 64%
11:00 +23°C° 0.1 mm 1 m/s 710 mmHg 62%
12:00 +24°C° 0.1 mm 2 m/s 710 mmHg 60%
13:00 +24°C° 0.4 mm 2 m/s 710 mmHg 59%
14:00 +24°C° 0.4 mm 2 m/s 710 mmHg 59%
15:00 +24°C° 0.4 mm 2 m/s 710 mmHg 58%
16:00 +21°C° 0.6 mm 2 m/s 709 mmHg 65%
17:00 +20°C° 0.6 mm 1 m/s 709 mmHg 72%
18:00 +19°C° 0.6 mm 1 m/s 709 mmHg 79%
19:00 +18°C° 0.2 mm 1 m/s 709 mmHg 81%
20:00 +16°C° 0.2 mm 1 m/s 709 mmHg 82%
21:00 +15°C° 0.2 mm 1 m/s 709 mmHg 84%
22:00 +15°C° 0 mm 1 m/s 709 mmHg 84%
23:00 +15°C° 0 mm 1 m/s 709 mmHg 85%

1 Outubro, Quinta-feira

Tempo Temperatura Precipitação Vento Pressão Humidade
00:00 +15°C° 0 mm 1 m/s 709 mmHg 85%
01:00 +15°C° 0 mm 1 m/s 709 mmHg 86%
02:00 +15°C° 0 mm 1 m/s 709 mmHg 86%
03:00 +14°C° 0 mm 0 m/s 709 mmHg 87%
04:00 +13°C° 0 mm 0 m/s 709 mmHg 87%
05:00 +13°C° 0 mm 0 m/s 709 mmHg 88%
06:00 +13°C° 0 mm 0 m/s 709 mmHg 88%
07:00 +15°C° 0 mm 0 m/s 709 mmHg 84%
08:00 +18°C° 0 mm 1 m/s 709 mmHg 79%
09:00 +19°C° 0 mm 1 m/s 709 mmHg 75%
10:00 +21°C° 0 mm 1 m/s 710 mmHg 68%
11:00 +22°C° 0 mm 1 m/s 710 mmHg 61%
12:00 +23°C° 0 mm 2 m/s 710 mmHg 54%
13:00 +23°C° 0.1 mm 2 m/s 710 mmHg 55%
14:00 +23°C° 0.1 mm 2 m/s 710 mmHg 55%
15:00 +23°C° 0.1 mm 1 m/s 710 mmHg 56%
16:00 +22°C° 0.1 mm 1 m/s 710 mmHg 60%
17:00 +21°C° 0.1 mm 1 m/s 710 mmHg 65%
18:00 +19°C° 0.1 mm 1 m/s 710 mmHg 70%
19:00 +19°C° 0.1 mm 1 m/s 710 mmHg 73%
20:00 +18°C° 0.1 mm 1 m/s 710 mmHg 75%
21:00 +16°C° 0.1 mm 1 m/s 710 mmHg 78%
22:00 +16°C° 0.1 mm 1 m/s 711 mmHg 81%
23:00 +15°C° 0.1 mm 1 m/s 711 mmHg 83%
Mostrar mais